Location: Caltech
(34.1382°N, 118.1253°W)
Time: 02:40:11
(UTC-07:00)

CZ-2C R/B - Visible Passes

Search period start: 18 September 2014 00:00
Search period end: 28 September 2014 00:00
Orbit: 670 x 786 km, 98.1° (Epoch: 17 September)

Date Brightness Start Highest point End Pass type
(mag) Time Alt. Az. Time Alt. Az. Time Alt. Az.
18 Sep 2.5 19:58:29 10° SSE 20:03:33 89° ENE 20:08:46 10° NNW visible
19 Sep 3.4 19:11:54 10° SE 19:16:17 30° ENE 19:20:43 10° N visible
19 Sep 4.5 20:50:09 10° SSW 20:54:26 27° W 20:58:48 10° NW visible
20 Sep 2.5 20:01:41 10° SSE 20:06:47 85° WSW 20:12:00 10° NNW visible
21 Sep 3.3 19:14:59 10° SE 19:19:29 32° ENE 19:24:02 10° N visible
21 Sep 4.6 20:53:31 10° SSW 20:57:41 25° W 21:01:56 10° NW visible
22 Sep 2.6 20:04:54 10° S 20:10:01 78° WSW 20:15:14 10° NNW visible
23 Sep 3.2 19:18:04 10° SE 19:22:41 35° ENE 19:27:21 10° N visible
23 Sep 4.7 20:56:53 10° SSW 21:00:56 23° W 21:05:02 10° NW visible
24 Sep 2.7 20:08:08 10° S 20:13:15 72° WSW 20:18:27 10° NNW visible
25 Sep 3.1 19:21:11 10° SE 19:25:53 37° ENE 19:30:39 10° N visible
25 Sep 4.8 21:00:17 10° SW 21:04:11 22° W 21:08:07 10° NW visible
26 Sep 2.9 20:11:22 10° S 20:16:29 67° W 20:21:39 10° NNW visible
27 Sep 3.0 19:24:17 10° SE 19:29:05 41° ENE 19:33:56 10° N visible
27 Sep 4.9 21:03:42 10° SW 21:07:26 20° W 21:11:11 10° NW visible
